AMU825 RKSI-VMMC

Flight info

Callsign AMU825
Flight time 3h 12m
Altitude 32000
Route BOPTA2A BOPTA Z51 BEDES Y711 MUGUS Y742 SALMI Q11 WP900/N0466F340 Q11 DRAKE A1 ELATO J101 NEDLE/N0415F220 J101 SMT
Aircraft A321/M-SDE3FGHIRWY/LB1

Departure

Time 2026-04-21 15:58
Airport Incheon International Airport (RKSI)

Arrival

Time 2026-04-21 19:11
Airport Macau International Airport (VMMC)
Time Latitude Longitude Altitude Speed Heading
2026-04-21 15:39 37.45319 126.45230 33 ft 0 kts 254°
2026-04-21 15:49 37.45320 126.45234 32 ft 3 kts 254°
2026-04-21 15:49 37.45328 126.45266 32 ft 4 kts 254°
2026-04-21 15:49 37.45335 126.45299 31 ft 4 kts 254°
2026-04-21 15:49 37.45340 126.45324 31 ft 4 kts 272°
2026-04-21 15:50 37.45332 126.45351 32 ft 4 kts 326°
2026-04-21 15:50 37.45313 126.45362 32 ft 0 kts 343°
2026-04-21 15:50 37.45312 126.45362 32 ft 0 kts 343°
2026-04-21 15:52 37.45314 126.45361 30 ft 1 kts 343°
2026-04-21 15:52 37.45328 126.45356 32 ft 3 kts 343°
2026-04-21 15:52 37.45349 126.45350 31 ft 3 kts 349°
2026-04-21 15:53 37.45374 126.45351 32 ft 4 kts 12°
2026-04-21 15:53 37.45396 126.45370 32 ft 4 kts 45°
2026-04-21 15:53 37.45416 126.45400 32 ft 5 kts 52°
2026-04-21 15:53 37.45436 126.45436 32 ft 5 kts 54°
2026-04-21 15:54 37.45458 126.45476 32 ft 6 kts 56°
2026-04-21 15:54 37.45482 126.45520 32 ft 6 kts 55°
2026-04-21 15:54 37.45509 126.45567 32 ft 7 kts 55°
2026-04-21 15:54 37.45538 126.45619 32 ft 8 kts 55°
2026-04-21 15:55 37.45552 126.45682 32 ft 8 kts 96°
2026-04-21 15:55 37.45519 126.45735 31 ft 8 kts 142°
2026-04-21 15:55 37.45472 126.45778 32 ft 9 kts 145°
2026-04-21 15:55 37.45421 126.45823 31 ft 9 kts 145°
2026-04-21 15:56 37.45370 126.45870 32 ft 6 kts 140°
2026-04-21 15:56 37.45350 126.45912 32 ft 6 kts 101°
2026-04-21 15:56 37.45364 126.45961 32 ft 6 kts 57°
2026-04-21 15:56 37.45391 126.46007 32 ft 7 kts 50°
2026-04-21 15:57 37.45431 126.46040 32 ft 7 kts 17°
2026-04-21 15:57 37.45481 126.46032 32 ft 8 kts 337°
2026-04-21 15:57 37.45497 126.46021 32 ft 0 kts 327°
2026-04-21 15:57 37.45500 126.46019 32 ft 10 kts 327°
2026-04-21 15:58 37.45802 126.45750 33 ft 94 kts 324°
2026-04-21 15:58 37.46527 126.45105 32 ft 159 kts 324°
2026-04-21 15:58 37.47530 126.44214 456 ft 183 kts 325°
2026-04-21 15:58 37.48597 126.43267 1205 ft 192 kts 325°
2026-04-21 15:59 37.49699 126.42285 1987 ft 192 kts 325°
2026-04-21 15:59 37.50809 126.41314 2401 ft 200 kts 326°
2026-04-21 15:59 37.52039 126.40306 2558 ft 221 kts 325°
2026-04-21 15:59 37.53399 126.39207 2687 ft 244 kts 323°
2026-04-21 16:00 37.54888 126.37994 2961 ft 262 kts 322°
2026-04-21 16:00 37.56399 126.36717 3735 ft 258 kts 315°
2026-04-21 16:00 37.57509 126.35017 4441 ft 249 kts 291°
2026-04-21 16:00 37.57938 126.32940 5104 ft 245 kts 270°
2026-04-21 16:01 37.57947 126.30784 5754 ft 247 kts 268°
2026-04-21 16:01 37.57947 126.28603 6410 ft 250 kts 268°
2026-04-21 16:01 37.57949 126.26395 7030 ft 254 kts 269°
2026-04-21 16:01 37.57923 126.24159 7629 ft 256 kts 262°
2026-04-21 16:02 37.57372 126.22017 8184 ft 262 kts 240°
2026-04-21 16:02 37.56140 126.20306 8754 ft 270 kts 217°
2026-04-21 16:02 37.54412 126.19306 9310 ft 278 kts 202°
2026-04-21 16:02 37.52564 126.18527 9868 ft 282 kts 202°
2026-04-21 16:03 37.50696 126.17741 10263 ft 295 kts 202°
2026-04-21 16:03 37.48690 126.16888 10395 ft 315 kts 202°
2026-04-21 16:03 37.46531 126.16067 10525 ft 336 kts 195°
2026-04-21 16:03 37.44131 126.15773 10644 ft 358 kts 182°
2026-04-21 16:04 37.41583 126.16206 10758 ft 382 kts 168°
2026-04-21 16:04 37.39053 126.17471 11001 ft 398 kts 153°
2026-04-21 16:04 37.36798 126.19547 11415 ft 407 kts 139°
2026-04-21 16:04 37.34875 126.22216 11902 ft 412 kts 132°
2026-04-21 16:05 37.32988 126.24930 12391 ft 415 kts 132°
2026-04-21 16:05 37.31063 126.27673 12905 ft 420 kts 133°
2026-04-21 16:05 37.29121 126.30432 13427 ft 424 kts 133°
2026-04-21 16:05 37.27171 126.33211 13908 ft 427 kts 134°
2026-04-21 16:06 37.25183 126.36028 14432 ft 431 kts 134°
2026-04-21 16:06 37.23193 126.38856 14878 ft 435 kts 134°
2026-04-21 16:06 37.21110 126.41619 15357 ft 435 kts 140°
2026-04-21 16:06 37.18731 126.43971 15802 ft 435 kts 150°
2026-04-21 16:07 37.16086 126.45797 16236 ft 434 kts 160°
2026-04-21 16:07 37.13263 126.47166 16731 ft 436 kts 165°
2026-04-21 16:07 37.10411 126.48495 17208 ft 439 kts 164°
2026-04-21 16:07 37.07549 126.49849 17636 ft 441 kts 164°
2026-04-21 16:08 37.01787 126.52309 18412 ft 438 kts 171°
2026-04-21 16:08 36.98776 126.53308 18760 ft 444 kts 171°
2026-04-21 16:08 36.95814 126.54279 19168 ft 447 kts 171°
2026-04-21 16:09 36.92800 126.55261 19602 ft 449 kts 171°
2026-04-21 16:09 36.89776 126.56252 19991 ft 451 kts 172°
2026-04-21 16:09 36.86726 126.57255 20365 ft 454 kts 172°
2026-04-21 16:09 36.83664 126.58265 20752 ft 456 kts 172°
2026-04-21 16:10 36.80583 126.59281 21110 ft 459 kts 172°
2026-04-21 16:10 36.77491 126.60298 21458 ft 461 kts 172°
2026-04-21 16:10 36.74375 126.61320 21804 ft 464 kts 172°
2026-04-21 16:10 36.71240 126.62358 22070 ft 467 kts 172°
2026-04-21 16:11 36.68096 126.63417 22407 ft 469 kts 172°
2026-04-21 16:11 36.64946 126.64488 22726 ft 471 kts 172°
2026-04-21 16:11 36.61768 126.65566 23046 ft 474 kts 172°
2026-04-21 16:11 36.58573 126.66640 23336 ft 476 kts 172°
2026-04-21 16:12 36.56450 126.67349 23516 ft 478 kts 172°
2026-04-21 16:12 36.52142 126.68787 23908 ft 481 kts 172°
2026-04-21 16:12 36.48895 126.69873 24200 ft 483 kts 172°
2026-04-21 16:12 36.45643 126.70956 24497 ft 485 kts 172°
2026-04-21 16:13 36.42382 126.72044 24834 ft 485 kts 172°
2026-04-21 16:13 36.39127 126.73135 25245 ft 484 kts 173°
2026-04-21 16:13 36.35873 126.74229 25659 ft 483 kts 173°
2026-04-21 16:13 36.32680 126.75310 26072 ft 482 kts 173°
2026-04-21 16:14 36.29408 126.76417 26474 ft 480 kts 173°
2026-04-21 16:14 36.26235 126.77490 26860 ft 479 kts 173°
2026-04-21 16:14 36.23021 126.78573 27244 ft 478 kts 173°
2026-04-21 16:14 36.19820 126.79650 27646 ft 476 kts 173°
2026-04-21 16:15 36.16617 126.80555 28055 ft 466 kts 181°
2026-04-21 16:15 36.13422 126.80895 28442 ft 455 kts 188°
2026-04-21 16:15 36.10305 126.80703 28836 ft 445 kts 194°
2026-04-21 16:15 36.07232 126.80358 29206 ft 444 kts 194°
2026-04-21 16:16 36.04155 126.80020 29563 ft 443 kts 194°
2026-04-21 16:16 36.01088 126.79689 29944 ft 441 kts 194°
2026-04-21 16:16 35.98033 126.79364 30325 ft 439 kts 194°
2026-04-21 16:16 35.94989 126.79041 30638 ft 439 kts 194°
2026-04-21 16:17 35.91946 126.78717 30912 ft 439 kts 194°
2026-04-21 16:17 35.88903 126.78388 31183 ft 439 kts 194°
2026-04-21 16:17 35.85857 126.78055 31475 ft 439 kts 194°
2026-04-21 16:17 35.82817 126.77721 31752 ft 439 kts 194°
2026-04-21 16:18 35.79776 126.77388 32033 ft 439 kts 194°
2026-04-21 16:18 35.73708 126.76727 32126 ft 443 kts 194°
2026-04-21 16:19 35.67564 126.76066 32127 ft 444 kts 194°
2026-04-21 16:19 35.61406 126.75415 32131 ft 444 kts 194°
2026-04-21 16:20 35.55250 126.74755 32123 ft 444 kts 194°
2026-04-21 16:20 35.49092 126.74087 32125 ft 444 kts 194°
2026-04-21 16:21 35.42927 126.73417 32131 ft 445 kts 194°
2026-04-21 16:21 35.36767 126.72764 32130 ft 444 kts 194°
2026-04-21 16:22 35.31653 126.72226 32124 ft 444 kts 194°
2026-04-21 16:22 35.24463 126.71457 32131 ft 443 kts 194°
2026-04-21 16:23 35.18330 126.70798 32126 ft 443 kts 194°
2026-04-21 16:23 35.12229 126.70147 32124 ft 443 kts 194°
2026-04-21 16:24 35.06088 126.69495 32123 ft 443 kts 194°
2026-04-21 16:24 34.99932 126.68836 32110 ft 444 kts 193°
2026-04-21 16:25 34.93775 126.68192 32108 ft 444 kts 193°
2026-04-21 16:25 34.88647 126.67646 32105 ft 445 kts 193°
2026-04-21 16:26 34.82484 126.66990 32101 ft 445 kts 193°
2026-04-21 16:26 34.76309 126.66342 32111 ft 446 kts 193°
2026-04-21 16:27 34.70130 126.65692 32109 ft 445 kts 193°
2026-04-21 16:27 34.63959 126.65039 32119 ft 445 kts 193°
2026-04-21 16:28 34.57777 126.64381 32115 ft 446 kts 193°
2026-04-21 16:28 34.51586 126.63735 32108 ft 447 kts 193°
2026-04-21 16:29 34.45390 126.63093 32099 ft 447 kts 193°
2026-04-21 16:29 34.39234 126.62458 32112 ft 448 kts 192°
2026-04-21 16:30 34.32985 126.61805 32111 ft 448 kts 192°
2026-04-21 16:30 34.26814 126.61154 32121 ft 448 kts 192°
2026-04-21 16:31 34.20588 126.60504 32125 ft 449 kts 192°
2026-04-21 16:31 34.14367 126.59861 32116 ft 448 kts 192°
2026-04-21 16:32 34.08149 126.59208 32119 ft 448 kts 192°
2026-04-21 16:32 34.01933 126.58564 32119 ft 448 kts 192°
2026-04-21 16:33 33.95718 126.57922 32103 ft 448 kts 191°
2026-04-21 16:33 33.89501 126.57270 32099 ft 448 kts 192°
2026-04-21 16:34 33.83358 126.56288 32095 ft 440 kts 201°
2026-04-21 16:34 33.77655 126.53915 32094 ft 435 kts 206°
2026-04-21 16:35 33.71957 126.51438 32089 ft 436 kts 206°
2026-04-21 16:35 33.66250 126.48968 32090 ft 436 kts 206°
2026-04-21 16:36 33.60544 126.46495 32095 ft 436 kts 206°
2026-04-21 16:36 33.54825 126.44029 32098 ft 437 kts 205°
2026-04-21 16:37 33.49101 126.41568 32094 ft 437 kts 205°
2026-04-21 16:37 33.43382 126.39110 32093 ft 437 kts 205°
2026-04-21 16:38 33.37663 126.36647 32094 ft 437 kts 205°
2026-04-21 16:38 33.31942 126.34189 32093 ft 437 kts 205°
2026-04-21 16:39 33.26242 126.31739 32089 ft 437 kts 205°
2026-04-21 16:39 33.20519 126.29283 32086 ft 437 kts 205°
2026-04-21 16:40 33.14793 126.26833 32081 ft 437 kts 205°
2026-04-21 16:40 33.09061 126.24395 32078 ft 438 kts 205°
2026-04-21 16:41 33.03321 126.21949 32080 ft 438 kts 205°
2026-04-21 16:41 32.97574 126.19495 32076 ft 439 kts 205°
2026-04-21 16:42 32.91826 126.17029 32073 ft 439 kts 205°
2026-04-21 16:42 32.86072 126.14556 32072 ft 440 kts 205°
2026-04-21 16:43 32.80306 126.12082 32074 ft 441 kts 205°
2026-04-21 16:43 32.74534 126.09608 32078 ft 441 kts 205°
2026-04-21 16:44 32.68783 126.07154 32081 ft 442 kts 205°
2026-04-21 16:44 32.62988 126.04678 32084 ft 443 kts 205°
2026-04-21 16:45 32.57183 126.02208 32088 ft 443 kts 204°
2026-04-21 16:45 32.51375 125.99742 32088 ft 443 kts 204°
2026-04-21 16:46 32.45555 125.97263 32087 ft 444 kts 205°
2026-04-21 16:46 32.39766 125.94810 32089 ft 445 kts 204°
2026-04-21 16:47 32.33937 125.92350 32088 ft 445 kts 204°
2026-04-21 16:47 32.28092 125.89881 32087 ft 445 kts 204°
2026-04-21 16:48 32.22257 125.87416 32087 ft 446 kts 204°
2026-04-21 16:48 32.16416 125.84962 32087 ft 446 kts 204°
2026-04-21 16:49 32.10556 125.82502 32088 ft 446 kts 204°
2026-04-21 16:49 32.04714 125.80036 32090 ft 446 kts 204°
2026-04-21 16:50 31.98903 125.77595 32089 ft 446 kts 204°
2026-04-21 16:50 31.93052 125.75141 32089 ft 446 kts 204°
2026-04-21 16:51 31.87206 125.72685 32090 ft 446 kts 204°
2026-04-21 16:51 31.81356 125.70228 32081 ft 446 kts 204°
2026-04-21 16:52 31.75504 125.67776 32071 ft 446 kts 204°
2026-04-21 16:52 31.69657 125.65332 32060 ft 446 kts 204°
2026-04-21 16:53 31.63799 125.62884 32056 ft 446 kts 204°
2026-04-21 16:53 31.57953 125.60444 32051 ft 446 kts 204°
2026-04-21 16:54 31.52139 125.58002 32045 ft 447 kts 205°
2026-04-21 16:54 31.46284 125.55551 32043 ft 447 kts 205°
2026-04-21 16:55 31.40427 125.53101 32041 ft 447 kts 205°
2026-04-21 16:55 31.34580 125.50651 32035 ft 447 kts 205°
2026-04-21 16:56 31.28722 125.48210 32031 ft 447 kts 205°
2026-04-21 16:56 31.22857 125.45760 32031 ft 448 kts 205°
2026-04-21 16:57 31.16975 125.43313 32030 ft 449 kts 205°
2026-04-21 16:57 31.11089 125.40875 32031 ft 449 kts 205°
2026-04-21 16:58 31.05218 125.38436 32034 ft 449 kts 205°
2026-04-21 16:58 30.99365 125.36004 32037 ft 449 kts 205°
2026-04-21 16:59 30.93477 125.33561 32034 ft 449 kts 205°
2026-04-21 16:59 30.87578 125.31129 32032 ft 450 kts 205°
2026-04-21 17:00 30.81685 125.28704 32034 ft 450 kts 205°
2026-04-21 17:00 30.76745 125.26666 32034 ft 449 kts 205°
2026-04-21 17:01 30.69899 125.23837 32034 ft 450 kts 205°
2026-04-21 17:01 30.63996 125.21411 32035 ft 450 kts 205°
2026-04-21 17:02 30.58091 125.18988 32034 ft 450 kts 205°
2026-04-21 17:02 30.52183 125.16561 32034 ft 450 kts 205°
2026-04-21 17:03 30.46313 125.14150 32033 ft 450 kts 205°
2026-04-21 17:03 30.40409 125.11733 32405 ft 449 kts 205°
2026-04-21 17:03 30.37460 125.10527 32677 ft 449 kts 205°
2026-04-21 17:04 30.34524 125.09324 32923 ft 448 kts 205°
2026-04-21 17:04 30.31581 125.08123 33186 ft 448 kts 205°
2026-04-21 17:04 30.28645 125.06927 33428 ft 447 kts 205°
2026-04-21 17:04 30.25714 125.05735 33663 ft 446 kts 205°
2026-04-21 17:05 30.22781 125.04543 33884 ft 446 kts 205°
2026-04-21 17:05 30.19848 125.03348 34002 ft 447 kts 206°
2026-04-21 17:05 30.16919 125.02151 34018 ft 446 kts 206°
2026-04-21 17:06 30.11068 124.99761 34010 ft 446 kts 206°
2026-04-21 17:06 30.05218 124.97381 34008 ft 446 kts 205°
2026-04-21 17:07 30.00348 124.95412 34008 ft 446 kts 205°
2026-04-21 17:07 29.93522 124.92560 34009 ft 446 kts 207°
2026-04-21 17:08 29.87708 124.90042 34011 ft 446 kts 207°
2026-04-21 17:08 29.81931 124.87545 34024 ft 447 kts 206°
2026-04-21 17:09 29.73177 124.83807 34035 ft 448 kts 206°
2026-04-21 17:09 29.67326 124.81326 34045 ft 448 kts 206°
2026-04-21 17:10 29.61481 124.78858 34044 ft 448 kts 206°
2026-04-21 17:10 29.55631 124.76381 34044 ft 448 kts 206°
2026-04-21 17:11 29.49777 124.73900 34045 ft 448 kts 206°
2026-04-21 17:11 29.43930 124.71412 34031 ft 448 kts 206°
2026-04-21 17:12 29.38105 124.68952 34045 ft 449 kts 206°
2026-04-21 17:12 29.32243 124.66486 34039 ft 448 kts 206°
2026-04-21 17:13 29.26382 124.64023 34045 ft 449 kts 206°
2026-04-21 17:13 29.20519 124.61557 34038 ft 448 kts 206°
2026-04-21 17:14 29.14670 124.59087 34034 ft 448 kts 206°
2026-04-21 17:14 29.08802 124.56623 34037 ft 449 kts 206°
2026-04-21 17:15 29.02935 124.54162 34036 ft 450 kts 206°
2026-04-21 17:15 28.97063 124.51690 34037 ft 448 kts 208°
2026-04-21 17:16 28.92605 124.48835 34037 ft 438 kts 220°
2026-04-21 17:16 28.86819 124.44162 34029 ft 439 kts 220°
2026-04-21 17:17 28.82632 124.40797 34030 ft 439 kts 220°
2026-04-21 17:17 28.77663 124.36810 34029 ft 440 kts 220°
2026-04-21 17:18 28.72649 124.32786 34033 ft 441 kts 220°
2026-04-21 17:18 28.67622 124.28772 34027 ft 441 kts 220°
2026-04-21 17:19 28.62594 124.24761 34020 ft 441 kts 220°
2026-04-21 17:19 28.57561 124.20739 34023 ft 442 kts 220°
2026-04-21 17:20 28.52517 124.16713 34022 ft 443 kts 220°
2026-04-21 17:20 28.47458 124.12688 34016 ft 443 kts 220°
2026-04-21 17:21 28.42408 124.08666 34011 ft 444 kts 220°
2026-04-21 17:21 28.37341 124.04636 34000 ft 444 kts 219°
2026-04-21 17:22 28.32250 124.00640 33996 ft 447 kts 216°
2026-04-21 17:22 28.26600 123.97643 33989 ft 453 kts 208°
2026-04-21 17:23 28.20776 123.94869 33990 ft 454 kts 208°
2026-04-21 17:23 28.14955 123.92084 33987 ft 454 kts 208°
2026-04-21 17:24 28.09140 123.89292 33985 ft 454 kts 208°
2026-04-21 17:24 28.03306 123.86504 33988 ft 455 kts 208°
2026-04-21 17:25 27.97478 123.83730 33990 ft 455 kts 208°
2026-04-21 17:25 27.91641 123.80947 33992 ft 455 kts 208°
2026-04-21 17:26 27.85803 123.78170 33994 ft 455 kts 207°
2026-04-21 17:26 27.79953 123.75399 33997 ft 456 kts 208°
2026-04-21 17:27 27.74140 123.72640 34002 ft 455 kts 208°
2026-04-21 17:27 27.68300 123.69860 34003 ft 455 kts 208°
2026-04-21 17:28 27.62483 123.67028 34001 ft 452 kts 213°
2026-04-21 17:28 27.57306 123.63160 34002 ft 445 kts 220°
2026-04-21 17:29 27.52321 123.59104 33999 ft 445 kts 220°
2026-04-21 17:29 27.47263 123.55007 34000 ft 445 kts 220°
2026-04-21 17:30 27.42235 123.50941 34002 ft 445 kts 220°
2026-04-21 17:30 27.37244 123.46906 34004 ft 445 kts 220°
2026-04-21 17:31 27.32212 123.42847 34002 ft 444 kts 220°
2026-04-21 17:31 27.27191 123.38799 34004 ft 444 kts 220°
2026-04-21 17:32 27.22176 123.34760 34001 ft 443 kts 220°
2026-04-21 17:32 27.17165 123.30727 34003 ft 443 kts 220°
2026-04-21 17:33 27.12161 123.26702 33998 ft 442 kts 220°
2026-04-21 17:33 27.07167 123.22683 34000 ft 442 kts 220°
2026-04-21 17:34 27.02171 123.18676 33997 ft 441 kts 220°
2026-04-21 17:34 26.97174 123.14688 33991 ft 441 kts 220°
2026-04-21 17:35 26.92209 123.10718 33989 ft 440 kts 220°
2026-04-21 17:35 26.87223 123.06725 33989 ft 440 kts 220°
2026-04-21 17:36 26.82236 123.02747 33989 ft 440 kts 220°
2026-04-21 17:36 26.77258 122.98770 33987 ft 440 kts 220°
2026-04-21 17:37 26.72270 122.94808 33987 ft 440 kts 220°
2026-04-21 17:37 26.67272 122.90859 33990 ft 440 kts 220°
2026-04-21 17:38 26.62280 122.86899 33989 ft 440 kts 220°
2026-04-21 17:38 26.57294 122.82939 33989 ft 440 kts 220°
2026-04-21 17:39 26.52306 122.78984 33988 ft 439 kts 220°
2026-04-21 17:39 26.47325 122.75040 33987 ft 439 kts 220°
2026-04-21 17:40 26.42377 122.71124 33989 ft 439 kts 220°
2026-04-21 17:40 26.37399 122.67188 33987 ft 438 kts 220°
2026-04-21 17:41 26.32423 122.63256 33987 ft 438 kts 220°
2026-04-21 17:41 26.27441 122.59323 33985 ft 438 kts 220°
2026-04-21 17:42 26.22473 122.55407 33985 ft 438 kts 220°
2026-04-21 17:42 26.17492 122.51495 33984 ft 437 kts 220°
2026-04-21 17:43 26.12528 122.47594 33984 ft 437 kts 220°
2026-04-21 17:43 26.07567 122.43700 33985 ft 436 kts 220°
2026-04-21 17:44 26.02614 122.39814 33984 ft 436 kts 220°
2026-04-21 17:44 25.97658 122.35935 33986 ft 436 kts 220°
2026-04-21 17:45 25.92701 122.32060 33982 ft 436 kts 220°
2026-04-21 17:45 25.87742 122.28190 33981 ft 436 kts 220°
2026-04-21 17:46 25.82811 122.24345 33980 ft 436 kts 220°
2026-04-21 17:46 25.77844 122.20471 33974 ft 436 kts 220°
2026-04-21 17:47 25.72884 122.16608 33972 ft 435 kts 219°
2026-04-21 17:47 25.67931 122.12753 33972 ft 436 kts 220°
2026-04-21 17:48 25.62968 122.08882 33971 ft 435 kts 222°
2026-04-21 17:48 25.58748 122.04208 33969 ft 427 kts 233°
2026-04-21 17:49 25.54857 121.99231 33965 ft 428 kts 232°
2026-04-21 17:49 25.50938 121.94258 33969 ft 428 kts 232°
2026-04-21 17:50 25.47017 121.89289 33962 ft 429 kts 232°
2026-04-21 17:50 25.43092 121.84305 33963 ft 430 kts 232°
2026-04-21 17:51 25.39156 121.79322 33964 ft 430 kts 232°
2026-04-21 17:51 25.35211 121.74334 33959 ft 431 kts 232°
2026-04-21 17:52 25.31259 121.69342 33962 ft 432 kts 232°
2026-04-21 17:52 25.27326 121.64376 33961 ft 432 kts 232°
2026-04-21 17:53 25.23353 121.59367 33961 ft 433 kts 232°
2026-04-21 17:53 25.19379 121.54359 33962 ft 434 kts 232°
2026-04-21 17:54 25.15408 121.49340 33965 ft 434 kts 233°
2026-04-21 17:54 25.11501 121.44256 33954 ft 434 kts 233°
2026-04-21 17:55 25.07600 121.39144 33961 ft 436 kts 233°
2026-04-21 17:55 25.03682 121.34043 33954 ft 437 kts 233°
2026-04-21 17:56 24.99725 121.28945 33946 ft 437 kts 233°
2026-04-21 17:56 24.95766 121.23847 33949 ft 437 kts 233°
2026-04-21 17:57 24.91822 121.18759 33943 ft 437 kts 233°
2026-04-21 17:57 24.87862 121.13654 33936 ft 438 kts 233°
2026-04-21 17:58 24.83931 121.08582 33945 ft 438 kts 232°
2026-04-21 17:58 24.79967 121.03471 33945 ft 439 kts 233°
2026-04-21 17:59 24.75997 120.98365 33952 ft 439 kts 232°
2026-04-21 17:59 24.72020 120.93262 33955 ft 439 kts 233°
2026-04-21 18:00 24.68042 120.88156 33963 ft 439 kts 233°
2026-04-21 18:00 24.64058 120.83055 33964 ft 439 kts 233°
2026-04-21 18:01 24.60077 120.77958 33970 ft 439 kts 233°
2026-04-21 18:01 24.56093 120.72870 33975 ft 439 kts 232°
2026-04-21 18:02 24.51949 120.67915 33982 ft 441 kts 230°
2026-04-21 18:02 24.47646 120.63109 33983 ft 441 kts 229°
2026-04-21 18:03 24.43373 120.58334 33984 ft 441 kts 230°
2026-04-21 18:03 24.39104 120.53489 33986 ft 441 kts 230°
2026-04-21 18:04 24.35570 120.49457 33988 ft 441 kts 230°
2026-04-21 18:04 24.31312 120.44603 33989 ft 441 kts 230°
2026-04-21 18:05 24.27052 120.39762 33989 ft 441 kts 230°
2026-04-21 18:05 24.22790 120.34924 33989 ft 441 kts 230°
2026-04-21 18:06 24.18522 120.30080 33990 ft 442 kts 230°
2026-04-21 18:06 24.14248 120.25239 33991 ft 442 kts 230°
2026-04-21 18:07 24.09975 120.20405 33991 ft 442 kts 230°
2026-04-21 18:07 24.05703 120.15575 33992 ft 442 kts 230°
2026-04-21 18:08 24.01453 120.10776 33987 ft 442 kts 230°
2026-04-21 18:08 23.97177 120.05950 33983 ft 442 kts 230°
2026-04-21 18:09 23.92897 120.01135 33984 ft 441 kts 230°
2026-04-21 18:09 23.88612 119.96319 33981 ft 442 kts 230°
2026-04-21 18:10 23.84334 119.91510 33978 ft 442 kts 230°
2026-04-21 18:10 23.80052 119.86692 33975 ft 442 kts 230°
2026-04-21 18:11 23.75765 119.81880 33974 ft 442 kts 230°
2026-04-21 18:11 23.71475 119.77072 33972 ft 442 kts 230°
2026-04-21 18:12 23.67182 119.72257 33968 ft 442 kts 230°
2026-04-21 18:12 23.62880 119.67450 33967 ft 443 kts 230°
2026-04-21 18:13 23.58833 119.62493 33970 ft 437 kts 240°
2026-04-21 18:13 23.55587 119.56888 33963 ft 437 kts 241°
2026-04-21 18:14 23.50718 119.48485 33956 ft 437 kts 241°
2026-04-21 18:15 23.47463 119.42879 33957 ft 438 kts 241°
2026-04-21 18:15 23.44203 119.37263 33955 ft 438 kts 241°
2026-04-21 18:16 23.40943 119.31653 33957 ft 439 kts 241°
2026-04-21 18:16 23.37673 119.26040 33957 ft 440 kts 241°
2026-04-21 18:17 23.34414 119.20450 33961 ft 440 kts 241°
2026-04-21 18:17 23.31113 119.14795 33964 ft 440 kts 241°
2026-04-21 18:18 23.27850 119.09202 33960 ft 441 kts 241°
2026-04-21 18:18 23.24557 119.03580 33955 ft 441 kts 241°
2026-04-21 18:19 23.21258 118.97955 33957 ft 442 kts 241°
2026-04-21 18:19 23.17957 118.92324 33967 ft 442 kts 241°
2026-04-21 18:20 23.14649 118.86671 33963 ft 443 kts 241°
2026-04-21 18:20 23.11337 118.81029 33970 ft 443 kts 241°
2026-04-21 18:21 23.08011 118.75385 33968 ft 444 kts 240°
2026-04-21 18:21 23.04682 118.69734 33959 ft 445 kts 240°
2026-04-21 18:22 23.01346 118.64079 33946 ft 445 kts 240°
2026-04-21 18:22 22.98010 118.58417 33937 ft 445 kts 240°
2026-04-21 18:23 22.94665 118.52757 33936 ft 446 kts 240°
2026-04-21 18:23 22.91307 118.47097 33934 ft 446 kts 240°
2026-04-21 18:24 22.87932 118.41441 33929 ft 447 kts 240°
2026-04-21 18:24 22.84572 118.35817 33933 ft 447 kts 240°
2026-04-21 18:25 22.81196 118.30151 33932 ft 447 kts 240°
2026-04-21 18:25 22.77813 118.24479 33931 ft 448 kts 239°
2026-04-21 18:26 22.74431 118.18818 33927 ft 448 kts 239°
2026-04-21 18:26 22.71037 118.13153 33929 ft 448 kts 239°
2026-04-21 18:27 22.67643 118.07490 33928 ft 449 kts 239°
2026-04-21 18:27 22.64241 118.01823 33929 ft 449 kts 239°
2026-04-21 18:28 22.60838 117.96155 33927 ft 449 kts 239°
2026-04-21 18:28 22.57448 117.90475 33929 ft 449 kts 239°
2026-04-21 18:29 22.54074 117.84794 33933 ft 449 kts 239°
2026-04-21 18:29 22.50702 117.79104 33934 ft 450 kts 239°
2026-04-21 18:30 22.47343 117.73453 33936 ft 450 kts 239°
2026-04-21 18:30 22.43950 117.67761 33935 ft 450 kts 239°
2026-04-21 18:31 22.40561 117.62085 33935 ft 449 kts 239°
2026-04-21 18:31 22.37171 117.56409 33936 ft 449 kts 240°
2026-04-21 18:32 22.34833 117.50227 33932 ft 444 kts 260°
2026-04-21 18:32 22.34724 117.43601 33933 ft 443 kts 280°
2026-04-21 18:33 22.36077 117.37153 33932 ft 444 kts 282°
2026-04-21 18:33 22.37457 117.30650 33935 ft 444 kts 282°
2026-04-21 18:34 22.38830 117.24138 33945 ft 444 kts 282°
2026-04-21 18:34 22.40202 117.17626 33937 ft 444 kts 282°
2026-04-21 18:35 22.41348 117.12209 33936 ft 444 kts 282°
2026-04-21 18:35 22.42936 117.04642 33938 ft 444 kts 282°
2026-04-21 18:36 22.44292 116.98137 33939 ft 444 kts 282°
2026-04-21 18:36 22.45655 116.91620 33936 ft 444 kts 282°
2026-04-21 18:37 22.47021 116.85117 33937 ft 444 kts 282°
2026-04-21 18:37 22.48384 116.78596 33937 ft 443 kts 281°
2026-04-21 18:38 22.49736 116.72079 33938 ft 444 kts 281°
2026-04-21 18:38 22.50597 116.65508 33936 ft 442 kts 268°
2026-04-21 18:39 22.50234 116.58879 33937 ft 442 kts 266°
2026-04-21 18:39 22.49864 116.52285 33938 ft 442 kts 266°
2026-04-21 18:40 22.49502 116.45609 33938 ft 442 kts 266°
2026-04-21 18:40 22.49202 116.40069 33950 ft 445 kts 266°
2026-04-21 18:41 22.48769 116.32317 33944 ft 444 kts 266°
2026-04-21 18:41 22.48383 116.25667 33943 ft 443 kts 266°
2026-04-21 18:42 22.48000 116.19019 33934 ft 443 kts 266°
2026-04-21 18:42 22.47611 116.12368 33932 ft 443 kts 266°
2026-04-21 18:43 22.47218 116.05708 33929 ft 443 kts 266°
2026-04-21 18:43 22.46832 115.99051 33927 ft 443 kts 266°
2026-04-21 18:44 22.46443 115.92406 33928 ft 443 kts 266°
2026-04-21 18:44 22.46048 115.85747 33928 ft 443 kts 266°
2026-04-21 18:45 22.45660 115.79125 33928 ft 443 kts 266°
2026-04-21 18:45 22.45260 115.72487 33928 ft 443 kts 265°
2026-04-21 18:46 22.44845 115.65843 33930 ft 442 kts 265°
2026-04-21 18:46 22.44433 115.59208 33930 ft 442 kts 266°
2026-04-21 18:47 22.44024 115.52573 33928 ft 442 kts 266°
2026-04-21 18:47 22.43619 115.45935 33925 ft 443 kts 266°
2026-04-21 18:48 22.43214 115.39296 33922 ft 443 kts 266°
2026-04-21 18:48 22.42799 115.32655 33921 ft 442 kts 265°
2026-04-21 18:49 22.42373 115.26022 33919 ft 442 kts 266°
2026-04-21 18:49 22.42018 115.20508 33919 ft 442 kts 266°
2026-04-21 18:50 22.41526 115.12763 33915 ft 442 kts 266°
2026-04-21 18:50 22.41113 115.06371 33915 ft 442 kts 266°
2026-04-21 18:51 22.40685 114.99733 33914 ft 442 kts 266°
2026-04-21 18:51 22.40257 114.93097 33908 ft 442 kts 266°
2026-04-21 18:51 22.40038 114.89796 33697 ft 441 kts 266°
2026-04-21 18:52 22.39820 114.86487 33448 ft 441 kts 266°
2026-04-21 18:52 22.39678 114.84299 33284 ft 442 kts 266°
2026-04-21 18:52 22.39393 114.79922 32950 ft 436 kts 266°
2026-04-21 18:52 22.39179 114.76696 32694 ft 427 kts 266°
2026-04-21 18:53 22.38968 114.73538 32442 ft 417 kts 266°
2026-04-21 18:53 22.38759 114.70432 32169 ft 409 kts 266°
2026-04-21 18:53 22.38556 114.67391 31797 ft 404 kts 266°
2026-04-21 18:53 22.38354 114.64386 31413 ft 398 kts 266°
2026-04-21 18:54 22.38217 114.62376 31163 ft 394 kts 266°
2026-04-21 18:54 22.38021 114.59483 30791 ft 389 kts 266°
2026-04-21 18:54 22.37821 114.56550 30412 ft 384 kts 266°
2026-04-21 18:54 22.37624 114.53692 30042 ft 379 kts 267°
2026-04-21 18:55 22.37211 114.50895 29659 ft 377 kts 253°
2026-04-21 18:55 22.36230 114.48307 29290 ft 375 kts 248°
2026-04-21 18:55 22.35166 114.45744 28916 ft 373 kts 248°
2026-04-21 18:55 22.34095 114.43195 28537 ft 370 kts 248°
2026-04-21 18:56 22.33029 114.40671 28298 ft 370 kts 248°
2026-04-21 18:56 22.31963 114.38146 28041 ft 369 kts 248°
2026-04-21 18:56 22.30899 114.35621 27790 ft 368 kts 248°
2026-04-21 18:56 22.29843 114.33109 27535 ft 367 kts 248°
2026-04-21 18:57 22.28780 114.30574 26760 ft 375 kts 248°
2026-04-21 18:57 22.27501 114.28096 25613 ft 384 kts 238°
2026-04-21 18:57 22.25940 114.25694 23874 ft 397 kts 236°
2026-04-21 18:57 22.24292 114.23256 22152 ft 405 kts 235°
2026-04-21 18:58 22.22594 114.20794 20370 ft 412 kts 235°
2026-04-21 18:58 22.20875 114.18312 18520 ft 416 kts 235°
2026-04-21 18:58 22.19138 114.15792 16655 ft 418 kts 236°
2026-04-21 18:58 22.17411 114.13272 14904 ft 416 kts 235°
2026-04-21 18:59 22.15722 114.10794 13781 ft 401 kts 234°
2026-04-21 18:59 22.14105 114.08408 13540 ft 385 kts 234°
2026-04-21 18:59 22.12558 114.06118 13409 ft 369 kts 234°
2026-04-21 18:59 22.11090 114.03945 13257 ft 344 kts 234°
2026-04-21 19:00 22.09738 114.01948 13069 ft 315 kts 234°
2026-04-21 19:00 22.08477 114.00089 12689 ft 303 kts 234°
2026-04-21 19:00 22.07273 113.98311 12418 ft 297 kts 234°
2026-04-21 19:00 22.06049 113.96509 12064 ft 294 kts 234°
2026-04-21 19:01 22.04847 113.94741 11685 ft 292 kts 233°
2026-04-21 19:01 22.03658 113.92993 11140 ft 287 kts 233°
2026-04-21 19:01 22.02486 113.91266 10380 ft 283 kts 233°
2026-04-21 19:01 22.01331 113.89565 9614 ft 279 kts 233°
2026-04-21 19:02 22.00191 113.87888 8892 ft 276 kts 232°
2026-04-21 19:02 21.99061 113.86226 8204 ft 271 kts 232°
2026-04-21 19:02 21.97967 113.84615 7674 ft 261 kts 232°
2026-04-21 19:02 21.96920 113.83073 7208 ft 250 kts 232°
2026-04-21 19:03 21.95900 113.81578 6758 ft 244 kts 231°
2026-04-21 19:03 21.94906 113.80126 6322 ft 237 kts 231°
2026-04-21 19:03 21.93934 113.78703 5891 ft 234 kts 231°
2026-04-21 19:03 21.92973 113.77299 5466 ft 233 kts 231°
2026-04-21 19:04 21.92014 113.75896 5035 ft 233 kts 232°
2026-04-21 19:04 21.91076 113.74480 4678 ft 231 kts 238°
2026-04-21 19:04 21.90496 113.72855 4677 ft 237 kts 256°
2026-04-21 19:04 21.90449 113.71130 4704 ft 230 kts 275°
2026-04-21 19:05 21.90927 113.69484 4663 ft 234 kts 293°
2026-04-21 19:05 21.91876 113.68105 4495 ft 223 kts 313°
2026-04-21 19:05 21.93105 113.67199 4242 ft 209 kts 332°
2026-04-21 19:05 21.94436 113.66678 3982 ft 197 kts 339°
2026-04-21 19:06 21.95693 113.66217 3768 ft 181 kts 339°
2026-04-21 19:06 21.96837 113.65799 3514 ft 168 kts 339°
2026-04-21 19:06 21.97942 113.65392 3287 ft 166 kts 339°
2026-04-21 19:06 21.99016 113.64997 3069 ft 165 kts 340°
2026-04-21 19:07 22.00103 113.64597 2849 ft 165 kts 340°
2026-04-21 19:07 22.01184 113.64200 2632 ft 164 kts 340°
2026-04-21 19:07 22.02260 113.63805 2417 ft 163 kts 339°
2026-04-21 19:07 22.03330 113.63411 2200 ft 162 kts 340°
2026-04-21 19:08 22.04391 113.63021 1990 ft 161 kts 339°
2026-04-21 19:08 22.05448 113.62633 1777 ft 161 kts 340°
2026-04-21 19:08 22.06498 113.62247 1563 ft 159 kts 340°
2026-04-21 19:08 22.07546 113.61861 1353 ft 158 kts 340°
2026-04-21 19:09 22.08588 113.61478 1142 ft 157 kts 340°
2026-04-21 19:09 22.09619 113.61099 934 ft 157 kts 340°
2026-04-21 19:09 22.10649 113.60720 726 ft 156 kts 340°
2026-04-21 19:09 22.11673 113.60343 518 ft 155 kts 340°
2026-04-21 19:10 22.12684 113.59971 314 ft 154 kts 340°
2026-04-21 19:10 22.13695 113.59599 110 ft 152 kts 340°
2026-04-21 19:10 22.14669 113.59239 28 ft 136 kts 341°
2026-04-21 19:10 22.15437 113.58961 27 ft 100 kts 341°
2026-04-21 19:11 22.15927 113.58782 29 ft 38 kts 341°
2026-04-21 19:11 22.16101 113.58718 29 ft 17 kts 341°
2026-04-21 19:11 22.16195 113.58649 29 ft 17 kts 295°
2026-04-21 19:11 22.16222 113.58519 29 ft 18 kts 282°
2026-04-21 19:12 22.16249 113.58383 29 ft 18 kts 282°
2026-04-21 19:12 22.16250 113.58272 29 ft 15 kts 254°
2026-04-21 19:12 22.16214 113.58160 29 ft 16 kts 251°
2026-04-21 19:12 22.16176 113.58042 29 ft 17 kts 251°
2026-04-21 19:13 22.16136 113.57918 29 ft 18 kts 251°
2026-04-21 19:13 22.16098 113.57805 29 ft 11 kts 248°
2026-04-21 19:13 22.16055 113.57757 29 ft 9 kts 207°
2026-04-21 19:13 22.15991 113.57737 29 ft 10 kts 194°
2026-04-21 19:14 22.15917 113.57716 29 ft 12 kts 195°
2026-04-21 19:14 22.15856 113.57699 29 ft 2 kts 195°
2026-04-21 19:14 22.15848 113.57690 29 ft 2 kts 229°
2026-04-21 19:14 22.15846 113.57674 29 ft 2 kts 274°
2026-04-21 19:15 22.15849 113.57659 29 ft 1 kts 281°
2026-04-21 19:15 22.15850 113.57650 29 ft 1 kts 283°
2026-04-21 19:15 22.15852 113.57643 29 ft 1 kts 284°
2026-04-21 19:15 22.15853 113.57637 29 ft 1 kts 284°
2026-04-21 19:16 22.15854 113.57633 29 ft 1 kts 284°
2026-04-21 19:16 22.15856 113.57628 29 ft 1 kts 285°
2026-04-21 19:16 22.15856 113.57625 29 ft 0 kts 285°
2026-04-21 19:16 22.15857 113.57623 29 ft 0 kts 285°